VE2BTZ Weather Reports


Display with metric or nautical units.
time (UTC)temp
F
wind
direction
speed
MPH
gust
MPH
rain 1hr
in
rain 24hr
in
rain mn
in
humidity
%
barometer
mb
20260508005003 49 273 0.0 0.0 0.00 0.00 0.00 56 1007.6
20260508004503 49 274 0.0 0.0 0.00 0.00 0.00 56 1007.6
20260508003504 50 273 0.0 0.0 0.00 0.00 0.00 54 1007.4
20260508003003 50 273 0.0 0.0 0.00 0.00 0.00 52 1007.4
20260508002003 50 274 0.0 0.0 0.00 0.00 0.00 51 1007.3
20260508001504 50 273 0.0 0.0 0.00 0.00 0.00 51 1007.3
20260508001003 51 274 0.0 0.0 0.00 0.00 0.00 50 1007.3
20260508000504 51 272 0.0 7.0 0.00 0.00 0.00 50 1007.3
20260508000004 51 271 2.0 6.0 0.00 0.00 0.00 49 1007.2
20260507235504 51 269 2.0 6.0 0.00 0.00 0.00 48 1007.2
20260507235004 51 267 5.0 9.0 0.00 0.00 0.00 47 1007.2
20260507234503 51 281 3.0 9.0 0.00 0.00 0.00 48 1007.2
20260507234003 51 256 5.0 9.0 0.00 0.00 0.00 47 1007.1
20260507233503 51 280 3.0 9.0 0.00 0.00 0.00 47 1007.1
20260507232503 51 266 5.0 12.0 0.00 0.00 0.00 47 1007.0
20260507232004 51 291 3.0 10.0 0.00 0.00 0.00 47 1007.0
20260507231503 51 229 3.0 7.0 0.00 0.00 0.00 48 1007.0
20260507231004 51 264 3.0 9.0 0.00 0.00 0.00 48 1007.1
20260507230503 51 262 4.0 10.0 0.00 0.00 0.00 47 1007.1
20260507230004 51 262 3.0 10.0 0.00 0.00 0.00 47 1007.1
20260507225503 52 281 6.0 12.0 0.00 0.00 0.00 46 1007.1
20260507224504 53 261 7.0 14.0 0.00 0.00 0.00 45 1007.1
20260507223503 53 289 6.0 12.0 0.00 0.00 0.00 45 1007.1
20260507223004 53 260 7.0 14.0 0.00 0.00 0.00 46 1007.1
20260507221503 52 280 9.0 14.0 0.00 0.00 0.00 46 1007.1
20260507221003 52 291 6.0 12.0 0.00 0.00 0.00 47 1007.1
20260507220503 52 272 6.0 13.0 0.00 0.00 0.00 47 1007.1
20260507220003 52 280 6.0 14.0 0.00 0.00 0.00 46 1007.1
20260507215503 52 279 3.0 12.0 0.00 0.00 0.00 48 1007.2
20260507215004 52 268 8.0 16.0 0.00 0.00 0.00 47 1007.2
20260507214504 52 272 5.0 10.0 0.00 0.00 0.00 48 1007.2
20260507214003 52 259 8.0 15.0 0.00 0.00 0.00 48 1007.2
20260507213503 52 265 6.0 10.0 0.00 0.00 0.00 49 1007.2
20260507212504 52 269 9.0 13.0 0.00 0.00 0.00 49 1007.1
20260507212003 52 280 8.0 16.0 0.00 0.00 0.00 48 1007.0
20260507211503 52 283 8.0 16.0 0.00 0.00 0.00 48 1007.1
20260507211003 52 278 7.0 12.0 0.00 0.00 0.00 49 1007.0
20260507210503 52 269 6.0 16.0 0.00 0.00 0.00 49 1007.0
20260507210003 51 277 9.0 16.0 0.00 0.00 0.00 49 1007.0
20260507205503 52 281 9.0 14.0 0.00 0.00 0.00 49 1007.0
20260507205003 52 286 9.0 20.0 0.00 0.00 0.00 49 1007.0
20260507204504 52 289 7.0 14.0 0.00 0.00 0.00 48 1006.9
20260507203503 51 277 6.0 15.0 0.00 0.00 0.00 49 1006.8
20260507203003 51 274 7.0 15.0 0.00 0.00 0.00 49 1006.8
20260507202504 51 274 8.0 14.0 0.00 0.00 0.00 48 1006.8
20260507202005 51 275 10.0 17.0 0.00 0.00 0.00 47 1006.8
20260507201504 52 278 9.0 17.0 0.00 0.00 0.00 47 1006.8
20260507201004 52 278 7.0 17.0 0.00 0.00 0.00 48 1006.9
20260507200504 52 258 12.0 20.0 0.00 0.00 0.00 46 1006.9
20260507200003 52 282 10.0 20.0 0.00 0.00 0.00 46 1006.9
20260507195503 52 272 6.0 17.0 0.00 0.00 0.00 46 1006.8
20260507195004 53 282 9.0 16.0 0.00 0.00 0.00 45 1006.8
20260507194504 53 292 7.0 18.0 0.00 0.00 0.00 45 1006.8
20260507194003 53 278 8.0 14.0 0.00 0.00 0.00 46 1006.9
20260507193503 52 277 10.0 18.0 0.00 0.00 0.00 46 1006.8
20260507193003 52 270 9.0 16.0 0.00 0.00 0.00 47 1006.9
20260507192503 52 266 8.0 15.0 0.00 0.00 0.00 48 1006.9
20260507192004 51 282 6.0 12.0 0.00 0.00 0.00 49 1007.0
20260507191504 51 265 11.0 17.0 0.00 0.00 0.00 47 1007.0
20260507191003 51 282 10.0 20.0 0.00 0.00 0.00 47 1007.0
20260507190004 50 263 9.0 14.0 0.00 0.00 0.00 47 1007.1
20260507185504 50 272 9.0 15.0 0.00 0.00 0.00 47 1007.1
20260507185003 50 271 5.0 15.0 0.00 0.00 0.00 49 1007.0
20260507184504 50 276 9.0 14.0 0.00 0.00 0.00 48 1007.2
20260507184005 50 273 7.0 16.0 0.00 0.00 0.00 48 1007.1
20260507183504 50 276 8.0 20.0 0.00 0.00 0.00 48 1007.1
20260507183004 51 280 10.0 20.0 0.00 0.00 0.00 47 1007.1
20260507182503 51 292 10.0 15.0 0.00 0.00 0.00 47 1007.0
20260507182003 51 279 9.0 14.0 0.00 0.00 0.00 46 1006.9
20260507181504 51 273 7.0 17.0 0.00 0.00 0.00 45 1006.8
20260507181003 52 267 9.0 16.0 0.00 0.00 0.00 45 1006.9
20260507180503 52 243 11.0 20.0 0.00 0.00 0.00 45 1006.8
20260507180004 52 258 7.0 20.0 0.00 0.00 0.00 47 1006.8
20260507175003 51 249 10.0 22.0 0.00 0.00 0.00 45 1006.8
20260507174003 51 259 9.0 20.0 0.00 0.00 0.00 46 1006.7
20260507173004 51 264 9.0 22.0 0.00 0.00 0.00 47 1006.8
20260507171503 52 267 5.0 12.0 0.00 0.01 0.00 50 1006.9
20260507171004 50 249 6.0 13.0 0.00 0.01 0.00 50 1007.0
20260507170503 50 261 9.0 24.0 0.00 0.01 0.00 49 1007.0
20260507170004 50 261 13.0 21.0 0.00 0.01 0.00 48 1007.0
20260507165503 50 252 12.0 21.0 0.00 0.01 0.00 48 1007.0
20260507164503 51 275 7.0 17.0 0.00 0.01 0.00 48 1007.0
20260507164004 53 261 14.0 26.0 0.00 0.01 0.00 46 1007.1
20260507163503 52 274 10.0 20.0 0.00 0.01 0.00 48 1007.1
20260507163003 51 250 6.0 20.0 0.00 0.02 0.00 53 1007.1
20260507162504 51 258 15.0 26.0 0.00 0.02 0.00 51 1007.2
20260507162003 51 264 13.0 22.0 0.00 0.02 0.00 51 1007.2
20260507161503 51 254 12.0 24.0 0.00 0.02 0.00 52 1007.2
20260507161003 51 269 10.0 23.0 0.00 0.02 0.00 51 1007.2
20260507160504 51 261 13.0 22.0 0.00 0.02 0.00 51 1007.3
20260507160004 51 247 10.0 20.0 0.00 0.02 0.00 51 1007.3
20260507155503 51 268 14.0 25.0 0.00 0.03 0.00 51 1007.1
20260507154503 50 263 11.0 26.0 0.00 0.04 0.00 55 1007.3
20260507154004 49 258 10.0 20.0 0.00 0.05 0.00 57 1007.2
20260507153003 49 269 10.0 21.0 0.00 0.06 0.00 59 1007.1
20260507152504 49 259 13.0 24.0 0.00 0.07 0.00 58 1007.3
20260507152003 49 249 10.0 20.0 0.00 0.08 0.00 58 1007.2
20260507151503 49 250 10.0 17.0 0.00 0.09 0.00 59 1007.1
20260507150005 50 269 8.0 21.0 0.00 0.10 0.00 58 1007.1
20260507145503 50 255 9.0 15.0 0.00 0.10 0.00 60 1007.1
20260507145003 50 237 6.0 16.0 0.00 0.11 0.00 62 1007.0
20260507144003 49 267 13.0 20.0 0.00 0.12 0.00 59 1007.1
20260507143504 49 261 8.0 17.0 0.00 0.12 0.00 62 1007.2
20260507143004 48 245 8.0 17.0 0.00 0.13 0.00 62 1007.2
20260507142504 48 259 7.0 20.0 0.00 0.13 0.00 62 1007.3
20260507141003 48 246 11.0 20.0 0.00 0.14 0.00 62 1007.4
20260507140503 47 250 9.0 21.0 0.00 0.15 0.00 63 1007.3
20260507140003 48 247 10.0 21.0 0.00 0.15 0.00 63 1007.5
20260507135503 47 247 5.0 16.0 0.00 0.15 0.00 65 1007.4
20260507135003 47 250 10.0 18.0 0.00 0.15 0.00 64 1007.4
20260507134503 47 261 12.0 20.0 0.00 0.16 0.00 63 1007.3
20260507134003 47 246 10.0 18.0 0.00 0.16 0.00 64 1007.4
20260507133504 47 261 9.0 17.0 0.00 0.16 0.00 65 1007.4
20260507132004 46 253 10.0 20.0 0.00 0.17 0.00 66 1007.4
20260507131503 46 260 9.0 20.0 0.00 0.17 0.00 66 1007.5
20260507130504 46 239 7.0 21.0 0.00 0.17 0.00 67 1007.5
20260507130003 46 260 12.0 20.0 0.00 0.17 0.00 66 1007.4
20260507125503 46 254 9.0 17.0 0.00 0.18 0.00 69 1007.5
20260507125004 45 252 6.0 17.0 0.00 0.18 0.00 68 1007.4
20260507124503 45 246 9.0 20.0 0.00 0.18 0.00 68 1007.4
20260507123503 45 255 9.0 17.0 0.00 0.19 0.00 69 1007.5
20260507123003 45 241 7.0 18.0 0.00 0.19 0.00 70 1007.4
20260507122004 45 252 10.0 22.0 0.00 0.20 0.00 69 1007.4
20260507121503 45 258 6.0 17.0 0.00 0.20 0.00 70 1007.5
20260507121004 44 252 9.0 20.0 0.00 0.21 0.00 71 1007.5
20260507120503 44 256 12.0 20.0 0.00 0.21 0.00 70 1007.4
20260507120005 44 235 9.0 23.0 0.00 0.22 0.00 72 1007.4
20260507115503 44 248 9.0 17.0 0.00 0.22 0.00 73 1007.3
20260507114503 43 242 9.0 20.0 0.00 0.24 0.00 77 1007.3
20260507114004 43 262 7.0 14.0 0.00 0.24 0.00 80 1007.3
20260507113503 43 268 7.0 14.0 0.00 0.24 0.00 81 1007.3
20260507113004 43 238 9.0 16.0 0.00 0.25 0.00 82 1007.3
20260507112503 43 259 6.0 21.0 0.00 0.26 0.00 83 1007.2
20260507112004 44 251 8.0 21.0 0.00 0.26 0.00 83 1007.2
20260507111504 44 249 9.0 18.0 0.00 0.27 0.00 83 1007.2
20260507111003 44 238 7.0 18.0 0.00 0.28 0.00 84 1007.2
20260507105503 44 257 7.0 15.0 0.00 0.28 0.00 86 1007.0
20260507105003 44 253 3.0 12.0 0.00 0.29 0.00 87 1006.9
20260507104504 44 245 4.0 12.0 0.00 0.29 0.00 87 1006.8
20260507103003 44 255 5.0 10.0 0.00 0.30 0.00 87 1006.7
20260507102504 44 238 6.0 14.0 0.00 0.30 0.00 87 1006.6
20260507101503 45 250 5.0 9.0 0.00 0.30 0.00 87 1006.6
20260507101003 45 249 7.0 14.0 0.00 0.31 0.00 87 1006.6
20260507100503 45 249 4.0 8.0 0.00 0.31 0.00 87 1006.6
20260507100004 45 249 5.0 13.0 0.00 0.31 0.00 87 1006.5
20260507095503 45 252 5.0 13.0 0.00 0.31 0.00 87 1006.5
20260507095004 45 274 5.0 18.0 0.00 0.31 0.00 87 1006.7
20260507094504 45 255 7.0 16.0 0.00 0.31 0.00 88 1006.6
20260507094003 45 263 5.0 14.0 0.00 0.31 0.00 88 1006.6
20260507093503 45 244 7.0 15.0 0.00 0.31 0.00 88 1006.6
20260507093004 45 257 8.0 14.0 0.00 0.31 0.00 88 1006.7
20260507092503 45 249 7.0 16.0 0.00 0.31 0.00 89 1006.7
20260507092003 45 247 6.0 12.0 0.00 0.31 0.00 88 1006.6
20260507091503 45 248 4.0 13.0 0.00 0.31 0.00 89 1006.6
20260507091003 45 260 7.0 13.0 0.00 0.31 0.00 89 1006.5
20260507090504 45 277 3.0 9.0 0.00 0.31 0.00 89 1006.5
20260507085503 45 256 3.0 13.0 0.00 0.31 0.00 89 1006.5
20260507085003 45 245 3.0 10.0 0.00 0.31 0.00 89 1006.4
20260507084503 45 240 3.0 12.0 0.00 0.31 0.00 89 1006.4
20260507084004 45 250 4.0 9.0 0.00 0.31 0.00 89 1006.5
20260507083504 45 240 3.0 10.0 0.00 0.31 0.00 89 1006.5
20260507083003 45 259 5.0 10.0 0.00 0.31 0.00 89 1006.5
20260507082503 45 262 3.0 12.0 0.00 0.31 0.00 89 1006.5
20260507081504 45 258 2.0 9.0 0.00 0.31 0.00 89 1006.6
20260507081003 45 250 3.0 12.0 0.00 0.31 0.00 89 1006.7
20260507080503 45 266 6.0 12.0 0.00 0.31 0.00 89 1006.7
20260507080004 45 235 3.0 8.0 0.00 0.31 0.00 89 1006.8
20260507075503 45 275 3.0 10.0 0.00 0.31 0.00 89 1006.7
20260507075004 45 247 5.0 10.0 0.00 0.31 0.00 89 1006.8
20260507074503 45 263 1.0 6.0 0.00 0.31 0.00 89 1006.8
20260507074003 45 255 3.0 10.0 0.00 0.31 0.00 89 1007.0
20260507073504 45 252 3.0 10.0 0.00 0.31 0.00 89 1006.9
20260507073003 45 256 3.0 12.0 0.00 0.31 0.00 89 1006.9
20260507072504 45 255 5.0 10.0 0.00 0.31 0.00 89 1006.8
20260507072004 45 258 3.0 8.0 0.00 0.31 0.00 89 1006.8
20260507071003 45 256 3.0 9.0 0.00 0.31 0.00 89 1006.8
20260507070504 45 250 5.0 13.0 0.00 0.31 0.00 89 1006.8
20260507070008 45 247 5.0 10.0 0.00 0.31 0.00 90 1006.8
20260507065503 45 248 5.0 10.0 0.00 0.31 0.00 89 1006.7
20260507065003 45 265 3.0 13.0 0.00 0.31 0.00 89 1006.7
20260507064503 44 266 4.0 12.0 0.00 0.31 0.00 89 1006.7
20260507064004 44 237 6.0 10.0 0.00 0.31 0.00 90 1006.7
20260507063503 44 260 5.0 12.0 0.00 0.31 0.00 90 1006.8
20260507063004 44 251 5.0 12.0 0.00 0.31 0.00 90 1006.8
20260507062503 44 263 4.0 9.0 0.00 0.31 0.00 90 1006.8
20260507061505 44 233 3.0 8.0 0.00 0.31 0.00 90 1007.0
20260507061003 44 264 3.0 8.0 0.00 0.31 0.00 90 1006.9
20260507060503 44 260 1.0 7.0 0.00 0.31 0.00 90 1007.0
20260507060004 44 250 2.0 9.0 0.00 0.31 0.00 90 1007.1
20260507055503 44 239 2.0 9.0 0.00 0.31 0.00 90 1007.2
20260507055004 44 236 2.0 7.0 0.00 0.31 0.00 90 1007.2
20260507054503 44 242 1.0 7.0 0.00 0.31 0.00 90 1007.2
20260507054003 44 221 0.0 3.0 0.00 0.31 0.00 90 1007.3
20260507053503 44 240 1.0 6.0 0.00 0.31 0.00 90 1007.3
20260507053004 44 276 1.0 8.0 0.00 0.31 0.00 90 1007.3
20260507052503 44 255 1.0 8.0 0.00 0.31 0.00 90 1007.4
20260507052003 44 256 2.0 7.0 0.00 0.31 0.00 90 1007.4
20260507051503 44 238 2.0 7.0 0.00 0.31 0.00 90 1007.4
20260507051004 44 259 2.0 5.0 0.00 0.31 0.00 90 1007.4
20260507050503 44 246 2.0 6.0 0.00 0.31 0.00 90 1007.4
20260507050003 44 251 3.0 8.0 0.00 0.31 0.00 90 1007.5
20260507045503 44 251 1.0 7.0 0.00 0.31 0.00 90 1007.7
20260507045003 44 253 3.0 8.0 0.00 0.31 0.00 90 1007.8
20260507044504 44 251 1.0 7.0 0.00 0.31 0.00 90 1007.9
20260507044003 44 265 1.0 6.0 0.00 0.31 0.00 90 1008.0
20260507043503 44 239 1.0 7.0 0.00 0.31 0.00 90 1008.0
20260507043003 44 255 1.0 7.0 0.00 0.31 0.00 90 1008.1
20260507042004 44 258 2.0 7.0 0.00 0.31 0.00 90 1008.1
20260507040004 44 256 0.0 0.0 0.00 0.31 0.00 90 1008.2
20260507035504 44 267 0.0 3.0 0.00 0.31 0.31 90 1008.3
20260507035003 44 250 1.0 7.0 0.00 0.31 0.31 90 1008.3
20260507034503 44 239 0.0 0.0 0.00 0.31 0.31 90 1008.3
20260507033004 44 246 0.0 0.0 0.00 0.31 0.31 90 1008.4
20260507032503 44 246 0.0 0.0 0.00 0.31 0.31 89 1008.4
20260507032004 44 249 0.0 0.0 0.00 0.31 0.31 89 1008.4
20260507031004 44 266 0.0 0.0 0.00 0.32 0.31 89 1008.5
20260507030503 44 273 0.0 0.0 0.00 0.32 0.31 89 1008.5
20260507025503 44 271 0.0 0.0 0.00 0.32 0.31 89 1008.5
20260507025004 45 270 0.0 0.0 0.00 0.32 0.31 89 1008.5
20260507024004 45 271 0.0 0.0 0.00 0.32 0.31 89 1008.6
20260507023503 45 270 0.0 0.0 0.00 0.32 0.31 89 1008.6
20260507023004 45 271 0.0 0.0 0.00 0.32 0.31 88 1008.6
20260507022503 45 271 0.0 0.0 0.00 0.32 0.31 88 1008.6
20260507022003 45 273 0.0 0.0 0.00 0.32 0.31 88 1008.6
20260507021503 45 271 0.0 0.0 0.00 0.32 0.31 88 1008.6
20260507021004 45 270 0.0 0.0 0.00 0.32 0.31 88 1008.6
20260507020503 45 273 0.0 0.0 0.00 0.32 0.31 88 1008.7
20260507015503 45 271 0.0 0.0 0.00 0.32 0.31 87 1008.8
20260507015004 46 271 0.0 0.0 0.00 0.32 0.31 87 1008.8
20260507014503 46 271 0.0 0.0 0.00 0.32 0.31 87 1008.9
20260507013004 46 271 0.0 0.0 0.00 0.32 0.31 87 1009.0
20260507012503 46 271 0.0 0.0 0.00 0.32 0.31 86 1008.9
20260507012004 46 271 0.0 0.0 0.00 0.32 0.31 86 1008.9
20260507011503 46 271 0.0 0.0 0.00 0.32 0.31 86 1008.9
20260507011004 46 271 0.0 0.0 0.00 0.32 0.31 86 1008.9
20260507010503 46 271 0.0 0.0 0.00 0.32 0.31 86 1008.8
20260507010004 46 273 0.0 0.0 0.00 0.32 0.31 86 1008.7
20260507005503 46 272 0.0 0.0 0.00 0.32 0.31 86 1008.8